Location: Gleizolles
(44.4833°N, 6.7667°E)
Time: 15:21:21
(UTC+00:00)

Tiros 1 - Pass Details

Date: 02 July 2024
Orbit: 624 x 656 km, 48.4° (Epoch: 13 July)

Event Time Altitude Azimuth Distance (km) Brightness Sun altitude
Rises 20:15:08 0° 244° (WSW) 2,900 10.8 -8.3°
Reaches altitude 10° 20:17:26 10° 244° (WSW) 1,993 9.9 -8.6°
Maximum altitude 20:22:01 86° 160° (SSE) 630 7.1 -9.2°
Drops below altitude 10° 20:26:37 10° 68° (ENE) 1,997 9.5 -9.8°
Sets 20:28:56 0° 68° (ENE) 2,907 10.3 -10.0°
